TimePDT,TemperatureF,Dew PointF,Humidity,Sea Level PressureIn,VisibilityMPH,Wind Direction,Wind SpeedMPH,Gust SpeedMPH,PrecipitationIn,Events,Conditions,WindDirDegrees,DateUTC
12:56 AM,84.9,39.9,20,29.62,10.0,Calm,Calm,-,N/A,,Clear,0,2013-09-21 07:56:00
1:56 AM,84.9,39.0,20,29.63,10.0,West,3.5,-,N/A,,Clear,270,2013-09-21 08:56:00
2:56 AM,84.9,46.9,27,29.62,10.0,West,10.4,-,N/A,,Clear,260,2013-09-21 09:56:00
3:56 AM,84.9,46.9,27,29.62,10.0,Calm,Calm,-,N/A,,Clear,0,2013-09-21 10:56:00
4:56 AM,82.9,46.9,28,29.63,10.0,SSW,3.5,-,N/A,,Clear,210,2013-09-21 11:56:00
5:56 AM,81.0,46.9,30,29.65,10.0,West,8.1,-,N/A,,Clear,260,2013-09-21 12:56:00
6:56 AM,82.0,48.0,30,29.67,10.0,SW,5.8,-,N/A,,Clear,230,2013-09-21 13:56:00
7:56 AM,82.9,50.0,32,29.68,10.0,Calm,Calm,-,N/A,,Clear,0,2013-09-21 14:56:00
8:56 AM,88.0,48.9,26,29.68,10.0,East,4.6,-,N/A,,Clear,90,2013-09-21 15:56:00
9:56 AM,90.0,48.0,24,29.68,10.0,ESE,3.5,-,N/A,,Clear,120,2013-09-21 16:56:00
10:56 AM,95.0,44.1,17,29.65,10.0,SSW,19.6,27.6,N/A,,Clear,200,2013-09-21 17:56:00
11:56 AM,97.0,44.1,16,29.64,10.0,SSW,17.3,26.5,N/A,,Clear,210,2013-09-21 18:56:00
12:56 PM,99.0,48.0,18,29.60,10.0,South,19.6,25.3,N/A,,Clear,190,2013-09-21 19:56:00
1:56 PM,100.0,43.0,14,29.57,10.0,SSW,19.6,27.6,N/A,,Clear,200,2013-09-21 20:56:00
2:56 PM,100.0,39.9,13,29.54,10.0,SW,19.6,25.3,N/A,,Clear,220,2013-09-21 21:56:00
3:56 PM,100.0,41.0,13,29.51,10.0,South,19.6,25.3,N/A,,Clear,180,2013-09-21 22:56:00
4:56 PM,99.0,48.0,18,29.49,10.0,South,13.8,32.2,N/A,,Clear,180,2013-09-21 23:56:00
5:56 PM,99.0,28.0,8,29.48,10.0,WSW,17.3,25.3,N/A,,Clear,240,2013-09-22 00:56:00
6:56 PM,95.0,14.0,5,29.47,10.0,WSW,23.0,29.9,N/A,,Clear,240,2013-09-22 01:56:00
7:56 PM,93.9,17.1,6,29.49,10.0,SW,15.0,25.3,N/A,,Clear,230,2013-09-22 02:56:00
8:56 PM,89.1,21.0,8,29.50,10.0,WSW,10.4,-,N/A,,Clear,250,2013-09-22 03:56:00
9:56 PM,90.0,27.0,10,29.50,10.0,WSW,11.5,21.9,N/A,,Clear,240,2013-09-22 04:56:00
10:56 PM,84.0,28.9,14,29.50,10.0,SW,8.1,-,N/A,,Clear,220,2013-09-22 05:56:00
11:56 PM,82.0,28.9,14,29.51,10.0,South,8.1,-,N/A,,Clear,190,2013-09-22 06:56:00